Location: Unspecified
(45.4615°N, 74.0512°W)
Time: 06:29:04
(UTC-05:00)

CZ-3 Stage 3 - Visible Passes

Search period start: 11 December 2017 00:00
Search period end: 21 December 2017 00:00
Orbit: 417 x 34780 km, 31.0° (Epoch: 10 December)

Date Brightness Start Highest point End Pass type
(mag) Time Alt. Az. Time Alt. Az. Time Alt. Az.
12 Dec 6.5 06:22:55 10° SW 06:38:55 19° SSW 08:23:27 10° S visible
13 Dec 5.9 02:49:38 20° SSE 02:49:38 20° SSE 03:01:10 10° SE visible
15 Dec 6.5 06:14:12 10° SW 06:29:56 18° SSW 08:00:07 10° S visible
16 Dec 6.1 02:40:53 19° SSE 02:40:53 19° SSE 02:51:02 10° SE visible
18 Dec 6.6 06:05:34 10° SW 06:20:58 17° SSW 07:38:13 10° S visible
19 Dec 6.2 02:32:07 18° SSE 02:32:07 18° SSE 02:40:52 10° SE visible
